Willimantic, CT

5:36 AM EST on December 10, 2019 (GMT -0500)
Windham

Weather History for KIJD - June, 2019

Change the Weather History Date:

Tuesday, June 11, 2019

  Actual Average Record
Temperature  
Mean Temperature 66 °F -  
Max Temperature 73 °F 77 °F 93 °F (1967)
Min Temperature 55 °F 50 °F 37 °F (1980)
Cooling Degree Days 1    
Growing Degree Days 16 (Base 50)    
Moisture  
Dew Point 61 °F    
Average Humidity 84    
Maximum Humidity 100    
Minimum Humidity 47    
Precipitation  
Precipitation 0.63 in - - ()
Sea Level Pressure  
Sea Level Pressure 29.85 in    
Wind  
Wind Speed 4 mph ()    
Max Wind Speed 18 mph    
Max Gust Speed 29 mph    
Visibility 6.6 miles    
Events Rain    
Averages and records for this station are not official NWS values.
T = Trace of Precipitation, MM = Missing Value Source: Averaged Metar Reports

Daily Weather History Graph

Daily Weather History Graph

Search for Another Location

Airport or City:

Astronomy

Jun. 11, 2019 Rise Set
Actual Time 5:13 AM EDT 8:23 PM EDT
Civil Twilight 4:39 AM EDT 8:57 PM EDT
Nautical Twilight 3:56 AM EDT 9:41 PM EDT
Astronomical Twilight 3:03 AM EDT 10:33 PM EDT
Moon 2:13 PM EDT (6/11) 2:02 AM EDT (6/11)
Length of Visible Light 16h 17m
Length of Day
15h 09m
Waxing Gibbous, 66% of the Moon is Illuminated
Jun 11
Waxing Gibbous
Jun 17
Full
Jun 25
Last Quarter
Jul 2
New
Jul 9
First Quarter

Hourly Weather History & Observations

Time (EDT) Temp. Dew Point Humidity Pressure Visibility Wind Dir Wind Speed Gust Speed Precip Events Conditions
12:00 AM 66.0 °F 64.9 °F 96% 29.92 in 5.0 mi SSE 4.6 mph - N/A   Overcast
12:52 AM 66.9 °F 64.9 °F 93% 29.89 in 6.0 mi South 3.5 mph - 0.01 in   Overcast
1:52 AM 66.9 °F 66.0 °F 97% 29.86 in 9.0 mi Calm Calm - 0.00 in Rain Light Rain
2:02 AM 66.9 °F 66.0 °F 97% 29.86 in 7.0 mi Variable 3.5 mph - 0.00 in   Overcast
2:19 AM 66.9 °F 66.0 °F 97% 29.85 in 2.5 mi Calm Calm - 0.00 in Rain Light Rain
2:42 AM 66.9 °F 66.0 °F 97% 29.84 in 1.8 mi Variable 3.5 mph - 0.01 in Rain Light Rain
2:50 AM 66.2 °F 66.2 °F 100% 29.83 in 3.0 mi Variable 3.5 mph - 0.01 in Rain Light Rain
2:52 AM 66.9 °F 66.0 °F 97% 29.83 in 3.0 mi Variable 3.5 mph - 0.01 in Rain Light Rain
3:23 AM 66.9 °F 66.0 °F 97% 29.82 in 1.8 mi SSE 3.5 mph - 0.09 in Rain Heavy Rain
3:29 AM 66.9 °F 66.0 °F 97% 29.82 in 3.0 mi South 4.6 mph - 0.10 in Rain Light Rain
3:52 AM 66.9 °F 66.0 °F 97% 29.81 in 4.0 mi South 3.5 mph - 0.13 in Rain Light Rain
4:52 AM 66.9 °F 66.0 °F 97% 29.80 in 7.0 mi South 4.6 mph - 0.00 in Rain Light Rain
5:14 AM 66.9 °F 66.0 °F 97% 29.80 in 2.0 mi SSE 3.5 mph - 0.09 in Rain Rain
5:31 AM 66.9 °F 66.0 °F 97% 29.80 in 3.0 mi Calm Calm - 0.13 in Rain Light Rain
5:36 AM 66.9 °F 66.0 °F 97% 29.80 in 1.8 mi Calm Calm - 0.18 in Rain Heavy Rain
5:45 AM 66.9 °F 66.0 °F 97% 29.80 in 3.0 mi Calm Calm - 0.19 in Rain Light Rain
5:52 AM 66.9 °F 66.0 °F 97% 29.79 in 2.0 mi Calm Calm - 0.23 in Rain Heavy Rain
6:13 AM 66.9 °F 66.0 °F 97% 29.79 in 0.8 mi SE 3.5 mph - 0.20 in Rain Heavy Rain
6:18 AM 66.9 °F 66.0 °F 97% 29.80 in 1.2 mi Calm Calm - 0.20 in Rain Light Rain
6:21 AM 66.9 °F 66.0 °F 97% 29.79 in 3.0 mi Calm Calm - 0.20 in Rain Light Rain
6:25 AM 66.9 °F 66.0 °F 97% 29.79 in 9.0 mi Calm Calm - 0.20 in Rain Light Rain
6:52 AM 66.9 °F 66.0 °F 97% 29.80 in 10.0 mi Calm Calm - 0.20 in   Overcast
7:26 AM 66.9 °F 66.0 °F 97% 29.80 in 3.0 mi SSW 3.5 mph - 0.02 in Rain Light Rain
7:43 AM 68.0 °F 66.9 °F 96% 29.80 in 10.0 mi Calm Calm - 0.02 in   Overcast
7:52 AM 68.0 °F 66.9 °F 96% 29.80 in 9.0 mi Calm Calm - 0.02 in   Overcast
8:39 AM 69.1 °F 68.0 °F 96% 29.81 in 5.0 mi West 10.4 mph 21.9 mph 0.01 in Rain Light Rain
8:52 AM 66.9 °F 62.1 °F 84% 29.83 in 9.0 mi NW 12.7 mph - 0.01 in Rain Light Rain
9:00 AM 66.0 °F 62.1 °F 87% 29.83 in 10.0 mi NW 12.7 mph 18.4 mph 0.00 in Rain Light Rain
9:52 AM 64.0 °F 59.0 °F 84% 29.84 in 10.0 mi NW 6.9 mph - 0.02 in   Unknown
10:52 AM 64.9 °F 59.0 °F 81% 29.85 in 10.0 mi NW 11.5 mph 19.6 mph N/A   Scattered Clouds
11:52 AM 66.9 °F 57.0 °F 70% 29.85 in 10.0 mi NW 6.9 mph 21.9 mph N/A   Scattered Clouds
12:52 PM 69.1 °F 54.0 °F 58% 29.85 in 10.0 mi NW 17.3 mph 21.9 mph N/A   Clear
1:52 PM 71.1 °F 53.1 °F 53% 29.85 in 10.0 mi WNW 15.0 mph 25.3 mph N/A   Clear
2:52 PM 73.0 °F 53.1 °F 49% 29.86 in 10.0 mi NW 13.8 mph 27.6 mph N/A   Clear
3:52 PM 73.0 °F 52.0 °F 48% 29.88 in 10.0 mi NW 11.5 mph 26.5 mph N/A   Clear
4:52 PM 73.0 °F 52.0 °F 48% 29.90 in 10.0 mi NNW 18.4 mph 28.8 mph N/A   Clear
5:52 PM 73.0 °F 52.0 °F 48% 29.91 in 10.0 mi NW 13.8 mph 20.7 mph N/A   Clear
6:52 PM 73.0 °F 52.0 °F 48% 29.93 in 10.0 mi NW 13.8 mph 19.6 mph N/A   Clear
7:52 PM 70.0 °F 48.9 °F 47% 29.95 in 10.0 mi North 5.8 mph - N/A   Clear
8:52 PM 66.9 °F 48.0 °F 51% 29.98 in 10.0 mi Calm Calm - N/A   Clear
9:52 PM 61.0 °F 51.1 °F 70% 30.01 in 10.0 mi Calm Calm - N/A   Clear
10:52 PM 59.0 °F 52.0 °F 78% 30.02 in 10.0 mi NE 3.5 mph - N/A   Clear
11:52 PM 55.9 °F 52.0 °F 87% 30.05 in 10.0 mi Calm Calm - N/A   Clear